Location: Ellingshausen
(50.5460°N, 10.4723°E)
Time: 00:34:31
(UTC+00:00)

COSMOS 2406 - Pass Details

Date: 18 January 2026
Orbit: 843 x 861 km, 71.0° (Epoch: 9 February)

Event Time Altitude Azimuth Distance (km) Brightness Sun altitude
Exits shadow 04:15:50 21° 353° (N) 1,847 4.9 -27.2°
Maximum altitude 04:19:09 39° 49° (NE) 1,277 4.4 -26.6°
Drops below altitude 10° 04:24:29 10° 117° (ESE) 2,494 6.5 -25.8°
Sets 04:27:07 0° 125° (SE) 3,428 7.2 -25.4°
